Hooper Bay, AK

11:43 PM AKDT on May 26, 2017 (GMT -0800)
Hooper Bay

Weather History for PAHP - January, 2013

Change the Weather History Date:

Saturday, January 26, 2013

  Actual Average Record
Temperature  
Mean Temperature 60 °F -  
Max Temperature 64 °F 8 °F 64 °F (2013)
Min Temperature 55 °F 0 °F -18 °F (1998)
Degree Days  
Heating Degree Days 6    
Growing Degree Days 10 (Base 50)    
Moisture  
Dew Point -12 °F    
Average Humidity 6    
Maximum Humidity 8    
Minimum Humidity 4    
Precipitation  
Precipitation 0.00 in - - ()
Sea Level Pressure  
Sea Level Pressure 30.22 in    
Wind  
Wind Speed - (North)    
Max Wind Speed -    
Max Gust Speed -    
Visibility 10 miles    
Events      
Averages and records for this station are not official NWS values.
T = Trace of Precipitation, MM = Missing Value Source: NWS Daily Summary

Daily Weather History Graph

Daily Weather History Graph

Search for Another Location

Airport or City:

Trip Planner

Search our weather history database for the weather conditions in past years. The results will help you decide how hot, cold, wet, or windy it might be!

Date:

Astronomy

Jan. 26, 2013 Rise Set
Actual Time 10:40 AM AKST 5:54 PM AKST
Civil Twilight 9:48 AM AKST 6:47 PM AKST
Nautical Twilight 8:53 AM AKST 7:41 PM AKST
Astronomical Twilight 8:02 AM AKST 8:33 PM AKST
Moon 6:21 PM AKST (1/26) 9:51 AM AKST (1/26)
Length of Visible Light 8h 59m
Length of Day
7h 14m
Full, 100% of the Moon is Illuminated
Jan 26
Full
Jan 26
Full
Feb 3
Last Quarter
Feb 9
New
Feb 17
First Quarter

Hourly Weather History & Observations

Time (AKST) Temp. Dew Point Humidity Pressure Visibility Wind Dir Wind Speed Gust Speed Precip Events Conditions
12:16 AM 60.8 °F -20.2 °F 4% 30.18 in 10.0 mi North - - N/A   Clear
12:36 AM 57.2 °F -18.4 °F 4% 30.18 in 10.0 mi North - - N/A   Clear
12:56 AM 60.8 °F -16.6 °F 4% 30.19 in 10.0 mi North - - N/A   Clear
1:16 AM 59.0 °F -9.4 °F 6% 30.19 in 10.0 mi North - - N/A   Clear
1:36 AM 60.8 °F -5.8 °F 7% 30.19 in 10.0 mi North - - N/A   Clear
1:56 AM 60.8 °F -13.0 °F 5% 30.19 in 10.0 mi North - - N/A   Clear
2:16 AM 59.0 °F -14.8 °F 5% 30.19 in 10.0 mi North - - N/A   Clear
2:36 AM - - N/A% 30.26 in 10.0 mi North - - N/A   Clear
2:56 AM 59.0 °F -14.8 °F 5% 30.19 in 10.0 mi North - - N/A   Clear
3:16 AM 59.0 °F -13.0 °F 5% 30.19 in 10.0 mi North - - N/A   Clear
3:36 AM 57.2 °F -13.0 °F 5% 30.19 in 10.0 mi North - - N/A   Clear
3:56 AM 55.4 °F -14.8 °F 5% 30.22 in 10.0 mi North - - N/A   Clear
4:16 AM 59.0 °F -7.6 °F 6% 30.20 in 10.0 mi North - - N/A   Clear
4:36 AM 57.2 °F -11.2 °F 6% 30.20 in 10.0 mi North - - N/A   Clear
4:56 AM - - N/A% - 10.0 mi North - - N/A   Clear
5:16 AM 59.0 °F -9.4 °F 6% 30.20 in 10.0 mi North - - N/A   Clear
5:36 AM 59.0 °F -7.6 °F 6% 30.19 in 10.0 mi North - - N/A   Clear
5:56 AM 55.4 °F -11.2 °F 6% 30.19 in 10.0 mi North - - N/A   Clear
6:16 AM 55.4 °F -9.4 °F 7% 30.19 in 10.0 mi North - - N/A   Clear
6:36 AM 59.0 °F -2.2 °F 8% 30.19 in 10.0 mi North - - N/A   Clear
6:56 AM 57.2 °F -13.0 °F 5% 30.19 in 10.0 mi North - - N/A   Clear
7:16 AM 57.2 °F -11.2 °F 6% 30.19 in 10.0 mi North - - N/A   Clear
7:36 AM 57.2 °F -13.0 °F 5% 30.19 in 10.0 mi North - - N/A   Clear
7:56 AM 57.2 °F -11.2 °F 6% 30.20 in 10.0 mi North - - N/A   Clear
8:16 AM 55.4 °F -11.2 °F 6% 30.20 in 10.0 mi North - - N/A   Clear
8:36 AM 57.2 °F -4.0 °F 8% 30.20 in 10.0 mi North - - N/A   Clear
8:56 AM 57.2 °F -11.2 °F 6% 30.20 in 10.0 mi North - - N/A   Clear
9:16 AM 55.4 °F -11.2 °F 6% 30.20 in 10.0 mi North - - N/A   Clear
9:36 AM 55.4 °F -9.4 °F 7% 30.20 in 10.0 mi North - - N/A   Clear
9:56 AM 57.2 °F -5.8 °F 8% 30.20 in 10.0 mi North - - N/A   Clear
10:16 AM 57.2 °F -13.0 °F 5% 30.20 in 10.0 mi North - - N/A   Clear
10:36 AM 57.2 °F -11.2 °F 6% 30.20 in 10.0 mi North - - N/A   Clear
10:56 AM 57.2 °F -25.6 °F 4% 30.20 in 10.0 mi North - - N/A   Clear
11:16 AM 55.4 °F -23.8 °F 4% 30.20 in 10.0 mi North - - N/A   Clear
11:36 AM - - N/A% 30.20 in 10.0 mi North - - N/A   Clear
11:56 AM - - N/A% - 10.0 mi North - - N/A   Clear
12:16 PM - - N/A% - 10.0 mi North - - N/A   Clear
12:36 PM - - N/A% - 10.0 mi North - - N/A   Clear
12:56 PM - - N/A% - 10.0 mi North - - N/A   Clear
1:16 PM - - N/A% 30.22 in 10.0 mi North - - N/A   Clear
1:36 PM 62.6 °F -14.8 °F 4% 30.23 in 10.0 mi North - - N/A   Clear
1:56 PM 57.2 °F -16.6 °F 4% 30.23 in 10.0 mi North - - N/A   Clear
2:16 PM 60.8 °F -11.2 °F 5% 30.23 in 8.0 mi North - - N/A   Clear
2:36 PM 62.6 °F -11.2 °F 5% 30.23 in 10.0 mi North - - N/A   Clear
2:56 PM 60.8 °F -9.4 °F 6% 30.24 in 10.0 mi North - - N/A   Clear
3:16 PM 60.8 °F -9.4 °F 6% 30.23 in 10.0 mi North - - N/A   Clear
3:36 PM 60.8 °F -16.6 °F 4% 30.24 in 10.0 mi North - - N/A   Clear
3:56 PM 62.6 °F -14.8 °F 4% 30.24 in 10.0 mi North - - N/A   Clear
4:16 PM 64.4 °F -14.8 °F 4% 30.24 in 10.0 mi North - - N/A   Clear
4:36 PM - - N/A% - 10.0 mi North - - N/A   Clear
4:56 PM - - N/A% - 10.0 mi North - - N/A   Clear
5:16 PM 62.6 °F -9.4 °F 5% 30.25 in 10.0 mi North - - N/A   Clear
5:36 PM - - N/A% - 10.0 mi North - - N/A   Clear
5:56 PM - - N/A% - 10.0 mi North - - N/A   Clear
6:16 PM - - N/A% - 10.0 mi North - - N/A   Clear
6:36 PM - - N/A% - 10.0 mi North - - N/A   Clear
6:56 PM - - N/A% - 10.0 mi North - - N/A   Clear
7:16 PM - - N/A% - 10.0 mi North - - N/A   Clear
7:36 PM - - N/A% - 10.0 mi North - - N/A   Clear
7:56 PM 59.0 °F -7.6 °F 6% 30.28 in 10.0 mi North - - N/A   Clear
8:16 PM 57.2 °F -5.8 °F 8% 30.28 in 9.0 mi North - - N/A   Clear
8:36 PM 55.4 °F -11.2 °F 6% 30.29 in 10.0 mi North - - N/A   Clear
8:56 PM 55.4 °F -9.4 °F 7% 30.29 in 10.0 mi North - - N/A   Clear
9:16 PM 55.4 °F -14.8 °F 5% 30.30 in 10.0 mi North - - N/A   Clear
9:36 PM 59.0 °F -7.6 °F 6% 30.30 in 10.0 mi North - - N/A   Clear
9:56 PM 55.4 °F -11.2 °F 6% 30.31 in 10.0 mi North - - N/A   Clear
10:16 PM - - N/A% - 9.0 mi North - - N/A   Clear
10:36 PM - - N/A% 30.31 in 10.0 mi North - - N/A   Clear
10:56 PM - - N/A% - 10.0 mi North - - N/A   Clear
11:16 PM - - N/A% - 10.0 mi North - - N/A   Clear
11:36 PM - - N/A% - 10.0 mi North - - N/A   Clear
11:56 PM 57.2 °F -9.4 °F 6% 30.34 in 10.0 mi North - - N/A   Clear